McKinney, TX

2:57 PM CDT on June 23, 2017 (GMT -0500)
Collin County Regional

Weather History for KTKI - April, 2014

Change the Weather History Date:

Sunday, April 6, 2014

  Actual Average (KADS) Record (KADS)
Temperature  
Mean Temperature 48 °F -  
Max Temperature 51 °F 71 °F 82 °F (2003)
Min Temperature 44 °F 53 °F 37 °F (2009)
Degree Days  
Heating Degree Days 18    
Moisture  
Dew Point 46 °F    
Average Humidity 91    
Maximum Humidity 100    
Minimum Humidity 76    
Precipitation  
Precipitation 1.08 in - - ()
Sea Level Pressure  
Sea Level Pressure 29.87 in    
Wind  
Wind Speed 8 mph (NE)    
Max Wind Speed 17 mph    
Max Gust Speed 22 mph    
Visibility 5 miles    
Events Rain , Thunderstorm    
Averages and records for this station are not official NWS values.
T = Trace of Precipitation, MM = Missing Value Source: NWS Daily Summary

Daily Weather History Graph

Daily Weather History Graph

Search for Another Location

Airport or City:

Trip Planner

Search our weather history database for the weather conditions in past years. The results will help you decide how hot, cold, wet, or windy it might be!

Date:

Astronomy

Apr. 06, 2014 Rise Set
Actual Time 7:07 AM CDT 7:50 PM CDT
Civil Twilight 6:42 AM CDT 8:15 PM CDT
Nautical Twilight 6:12 AM CDT 8:45 PM CDT
Astronomical Twilight 5:42 AM CDT 9:15 PM CDT
Moon 12:19 PM CDT (4/6) 1:37 AM CDT (4/6)
Length of Visible Light 13h 32m
Length of Day
12h 42m
Waxing Crescent, 44% of the Moon is Illuminated
Apr 6
Waxing Crescent
Apr 7
First Quarter
Apr 15
Full
Apr 22
Last Quarter
Apr 29
New

Hourly Weather History & Observations

Time (CDT) Temp. Windchill Dew Point Humidity Pressure Visibility Wind Dir Wind Speed Gust Speed Precip Events Conditions
12:53 AM 48.9 °F - 43.0 °F 80% 30.01 in 10.0 mi NE 5.8 mph - N/A   Overcast
1:53 AM 48.0 °F - 42.1 °F 80% 29.99 in 10.0 mi ENE 8.1 mph - N/A   Overcast
2:53 AM 48.9 °F - 42.1 °F 77% 30.00 in 10.0 mi ENE 10.4 mph - N/A   Overcast
3:53 AM 48.9 °F - 42.1 °F 77% 29.96 in 10.0 mi East 9.2 mph - 0.00 in Rain Light Rain
4:49 AM 48.2 °F - 41.0 °F 76% 29.97 in 10.0 mi ENE 3.5 mph - 0.02 in Thunderstorm Overcast
4:53 AM 48.9 °F - 42.1 °F 77% 30.02 in 10.0 mi Variable 3.5 mph - 0.02 in Rain , Thunderstorm Light Rain
5:12 AM 46.4 °F 40.1 °F 42.8 °F 87% 29.92 in 2.5 mi ENE 15.0 mph - 0.13 in Rain , Thunderstorm Heavy Thunderstorms and Rain
5:20 AM 46.4 °F 41.5 °F 42.8 °F 87% 29.92 in 3.0 mi East 10.4 mph - 0.17 in Rain Heavy Rain
5:53 AM 46.9 °F - 43.0 °F 86% 29.94 in 10.0 mi East 8.1 mph - 0.18 in   Overcast
6:00 AM 46.4 °F 42.9 °F 42.8 °F 87% 29.91 in 10.0 mi ENE 6.9 mph - N/A Thunderstorm Overcast
6:53 AM 46.0 °F 41.4 °F 43.0 °F 89% 29.94 in 10.0 mi NE 9.2 mph - 0.00 in   Overcast
7:53 AM 46.0 °F 41.9 °F 43.0 °F 89% 29.94 in 4.0 mi NE 8.1 mph - 0.12 in Rain Rain
8:16 AM 44.6 °F 37.4 °F 42.8 °F 93% 29.89 in 2.0 mi NNE 16.1 mph 21.9 mph 0.16 in Rain Heavy Rain
8:27 AM 44.6 °F 39.7 °F 44.6 °F 100% 29.92 in 3.0 mi ENE 9.2 mph 21.9 mph 0.20 in Rain Rain
8:37 AM 46.4 °F 44.3 °F 44.6 °F 93% 29.94 in 4.0 mi North 4.6 mph - 0.21 in Rain Light Rain
8:53 AM 46.0 °F 41.9 °F 44.1 °F 93% 29.97 in 4.0 mi NNE 8.1 mph - 0.23 in Rain Light Rain
9:05 AM 46.4 °F 41.9 °F 44.6 °F 93% 29.93 in 7.0 mi NE 9.2 mph - 0.00 in Rain Light Rain
9:53 AM 46.9 °F - 44.1 °F 90% 29.92 in 9.0 mi East 9.2 mph - 0.00 in   Overcast
10:53 AM 46.9 °F - 45.0 °F 93% 29.94 in 8.0 mi ESE 10.4 mph - 0.02 in Rain Light Rain
11:22 AM 46.4 °F 41.5 °F 44.6 °F 93% 29.88 in 2.0 mi ENE 10.4 mph 17.3 mph 0.09 in Rain Rain
11:53 AM 48.0 °F - 46.0 °F 93% 29.93 in 3.0 mi NNE 5.8 mph - 0.18 in Rain Light Rain
12:14 PM 48.2 °F - 46.4 °F 93% 29.91 in 2.0 mi Calm Calm - 0.05 in Rain Rain
12:53 PM 48.0 °F - 46.9 °F 96% 29.91 in 2.5 mi Variable 3.5 mph - 0.10 in Rain Rain
1:00 PM 48.2 °F - 46.4 °F 93% 29.87 in 4.0 mi Calm Calm - 0.00 in Rain Light Rain
1:53 PM 50.0 °F - 48.0 °F 93% 29.83 in 6.0 mi NE 8.1 mph - 0.05 in Rain Light Rain
2:53 PM 51.1 °F - 48.9 °F 92% 29.84 in 5.0 mi ENE 8.1 mph - 0.03 in Rain Rain
3:53 PM 51.1 °F - 48.0 °F 89% 29.83 in 10.0 mi North 9.2 mph - 0.01 in   Overcast
4:31 PM 50.0 °F - 48.2 °F 94% 29.81 in 1.8 mi NNE 9.2 mph - 0.01 in Rain Light Rain
4:49 PM 51.8 °F - 48.2 °F 88% 29.79 in 1.5 mi NNE 11.5 mph - 0.03 in Rain Light Rain
4:53 PM 51.1 °F - 50.0 °F 96% 29.81 in 1.5 mi NNE 11.5 mph - 0.03 in Rain Light Rain
5:11 PM 50.0 °F - 48.2 °F 94% 29.78 in 2.5 mi NNE 17.3 mph 21.9 mph 0.01 in Rain Light Rain
5:33 PM 50.0 °F - 48.2 °F 94% 29.79 in 1.8 mi North 11.5 mph - 0.02 in Rain Light Rain
5:44 PM 50.0 °F - 48.2 °F 94% 29.78 in 2.5 mi NNE 16.1 mph - 0.02 in Rain Light Rain
5:53 PM 50.0 °F - 48.0 °F 93% 29.82 in 2.0 mi NNE 12.7 mph - 0.03 in Rain Light Rain
6:03 PM 50.0 °F - 48.2 °F 94% 29.80 in 2.0 mi NNE 11.5 mph - 0.00 in Rain Light Rain
6:28 PM 50.0 °F - 48.2 °F 94% 29.81 in 1.5 mi North 13.8 mph - 0.01 in Rain Light Rain
6:53 PM 50.0 °F - 48.0 °F 93% 29.83 in 2.0 mi North 12.7 mph - 0.02 in Rain Light Rain
7:04 PM 48.2 °F - 46.4 °F 93% 29.80 in 5.0 mi NNE 12.7 mph - 0.00 in   Overcast
7:33 PM 48.2 °F - 46.4 °F 93% 29.79 in 8.0 mi NNE 11.5 mph - 0.00 in Rain Light Rain
7:53 PM 48.9 °F - 46.9 °F 93% 29.83 in 3.0 mi NNE 8.1 mph - 0.00 in Rain Light Rain
8:20 PM 48.2 °F - 46.4 °F 93% 29.78 in 2.5 mi NE 8.1 mph - 0.01 in Rain Light Rain
8:31 PM 48.2 °F - 46.4 °F 93% 29.79 in 3.0 mi NNE 5.8 mph - 0.01 in Rain Light Rain
8:53 PM 48.9 °F - 48.0 °F 97% 29.84 in 3.0 mi North 3.5 mph - 0.02 in Rain Light Rain
9:13 PM 48.2 °F - 48.2 °F 100% 29.79 in 2.5 mi NE 9.2 mph - 0.01 in Rain Light Rain
9:25 PM 48.2 °F - 48.2 °F 100% 29.79 in 3.0 mi NE 8.1 mph - 0.01 in Rain Light Rain
9:34 PM 48.2 °F - 46.4 °F 93% 29.79 in 4.0 mi ENE 9.2 mph - 0.01 in Rain Light Rain
9:49 PM 48.2 °F - 48.2 °F 100% 29.79 in 9.0 mi East 6.9 mph - 0.02 in   Overcast
9:53 PM 48.9 °F - 48.0 °F 97% 29.82 in 9.0 mi East 8.1 mph - 0.02 in   Overcast
10:22 PM 48.2 °F - 46.4 °F 93% 29.79 in 10.0 mi NE 8.1 mph - 0.02 in Rain Light Rain
10:53 PM 48.9 °F - 46.9 °F 93% 29.83 in 10.0 mi North 4.6 mph - 0.02 in   Overcast
11:53 PM 50.0 °F - 48.0 °F 93% 29.86 in 10.0 mi WNW 9.2 mph - N/A   Overcast